PSLV DEB

基本信息
目录编号:
27538
目录名称:
PSLV DEB
国际标识:
2001-049MW
轨道中心:
EARTH
物体状态:
已陨落(2025-07-01)
发射日期:
2001-10-22 UTC
轨道信息
数据来源: 国际轨道数据
星历时间: 2025-06-25T00:38:40+0800
半长轴: 6587.421km
偏心率: 0.0010637
轨道倾角: 97.614°
近地点辐角: 256.345°
升交点赤经: 248.436°
平近点角: 103.665°
近地点: 202.278km
远地点: 216.294km
周期: 88.681分钟
每日圈数: 16.237892
详细信息
发射场:
SRI
轨道高度:
LEO
数据来源:
AOE Integration Group
参考系:
TEME
时间系统:
UTC
历元类型:
SGP4
2D轨道图
3D轨道图
轨道高度分析图
轨道倾角分析图
轨道综合分析图
查看轨道综合分析图